Location: Asheville, NC
(35.6000°N, 82.5500°W)
Time: 07:56:14
(UTC-04:00)

M-CUBED/EXP-1 PRIME - Pass Details

Date: 13 February 2018
Orbit: 431 x 676 km, 101.7° (Epoch: 21 May)

Event Time Altitude Azimuth Distance (km) Brightness Sun altitude
Rises 05:42:35 0° 31° (NNE) 2,473 ? -20.2°
Reaches altitude 10° 05:44:48 10° 45° (NE) 1,626 ? -19.7°
Maximum altitude 05:47:45 25° 103° (ESE) 1,001 ? -19.1°
Drops below altitude 10° 05:50:49 10° 161° (SSE) 1,716 ? -18.5°
Sets 05:53:13 0° 174° (S) 2,645 ? -18.0°
